QPF
0.02 0.02 0.04 0.04 0.04 0.05 0.06 0.06 0.08 0.10 0.08 0.08 0.08 0.09 0.07 0.06 0.06 0.07 0.05 0.05 0.05 0.07 0.07 0.09 0.10 0.11 0.11 0.08 0.09 0.11 0.11 0.15 0.15 0.09 0.07 0.08 0.08 0.09 0.08 0.06 0.04 0.05 0.05
0.04 0.03 0.03 0.05 0.06 0.07 0.07 0.08 0.07 0.06 0.06 0.08 0.08 0.07 0.05 0.05 0.05 0.04 0.04 0.04 0.05 0.05 0.07 0.12 0.12 0.12 0.13 0.11 0.10 0.11 0.11 0.14 0.13 0.09 0.07 0.07 0.07 0.08 0.09 0.08 0.04 0.03 0.04
0.04 0.03 0.03 0.05 0.06 0.06 0.07 0.07 0.06 0.05 0.05 0.07 0.08 0.08 0.07 0.06 0.06 0.05 0.04 0.05 0.06 0.06 0.08 0.10 0.11 0.13 0.12 0.12 0.12 0.11 0.11 0.13 0.15 0.12 0.08 0.08 0.07 0.07 0.10 0.09 0.08 0.09 0.05
0.03 0.04 0.06 0.07 0.06 0.06 0.05 0.05 0.05 0.05 0.07 0.08 0.08 0.08 0.08 0.06 0.06 0.06 0.06 0.07 0.09 0.08 0.08 0.09 0.10 0.11 0.11 0.13 0.11 0.10 0.10 0.12 0.15 0.14 0.11 0.10 0.11 0.11 0.14 0.11 0.12 0.13 0.10
0.04 0.05 0.08 0.09 0.09 0.08 0.06 0.05 0.06 0.06 0.06 0.07 0.08 0.08 0.07 0.07 0.05 0.07 0.07 0.08 0.10 0.10 0.09 0.09 0.09 0.09 0.10 0.10 0.07 0.09 0.10 0.12 0.12 0.11 0.10 0.10 0.09 0.11 0.12 0.13 0.15 0.15 0.14
0.03 0.06 0.07 0.07 0.08 0.07 0.06 0.05 0.06 0.06 0.07 0.07 0.06 0.06 0.06 0.05 0.06 0.07 0.08 0.09 0.11 0.11 0.08 0.08 0.07 0.08 0.08 0.08 0.06 0.05 0.07 0.08 0.09 0.10 0.10 0.09 0.08 0.09 0.12 0.13 0.14 0.14 0.12
0.03 0.05 0.06 0.06 0.06 0.05 0.04 0.05 0.06 0.06 0.06 0.06 0.07 0.07 0.08 0.07 0.07 0.07 0.06 0.06 0.08 0.08 0.06 0.06 0.05 0.05 0.07 0.04 0.04 0.04 0.04 0.04 0.05 0.06 0.07 0.07 0.07 0.08 0.11 0.11 0.12 0.12 0.11
0.02 0.03 0.05 0.05 0.04 0.04 0.04 0.05 0.07 0.08 0.09 0.09 0.09 0.09 0.09 0.07 0.06 0.04 0.04 0.04 0.05 0.05 0.04 0.04 0.04 0.04 0.04 0.03 0.05 0.05 0.03 0.03 0.03 0.04 0.04 0.05 0.06 0.07 0.09 0.11 0.13 0.15 0.15
0.02 0.02 0.03 0.04 0.04 0.04 0.04 0.05 0.05 0.07 0.08 0.07 0.08 0.08 0.07 0.06 0.06 0.04 0.04 0.04 0.05 0.06 0.05 0.05 0.05 0.05 0.05 0.04 0.06 0.06 0.04 0.03 0.03 0.03 0.03 0.03 0.03 0.05 0.06 0.08 0.10 0.13 0.13
0.02 0.02 0.03 0.04 0.06 0.06 0.06 0.07 0.07 0.06 0.06 0.07 0.06 0.05 0.05 0.05 0.06 0.05 0.05 0.04 0.06 0.07 0.07 0.06 0.05 0.04 0.05 0.04 0.05 0.04 0.04 0.03 0.04 0.04 0.03 0.03 0.03 0.04 0.05 0.05 0.07 0.08 0.09
0.03 0.03 0.02 0.03 0.05 0.07 0.07 0.08 0.07 0.08 0.08 0.07 0.07 0.06 0.04 0.05 0.05 0.03 0.04 0.05 0.06 0.07 0.07 0.07 0.06 0.05 0.03 0.02 0.02 0.02 0.02 0.02 0.03 0.03 0.03 0.04 0.05 0.06 0.06 0.07 0.07 0.07 0.07
0.05 0.04 0.03 0.03 0.03 0.05 0.07 0.07 0.08 0.08 0.06 0.05 0.07 0.08 0.06 0.05 0.04 0.02 0.03 0.03 0.05 0.06 0.06 0.06 0.04 0.03 0.02 0.02 0.01 0.01 0.01 0.01 0.02 0.02 0.03 0.05 0.06 0.06 0.07 0.07 0.05 0.05 0.05
0.05 0.06 0.07 0.07 0.06 0.06 0.07 0.07 0.07 0.06 0.07 0.07 0.07 0.06 0.06 0.06 0.06 0.06 0.06 0.06 0.06 0.05 0.04 0.03 0.02 0.02 0.02 0.01 0.01 0.02 0.02 0.01 0.02 0.02 0.03 0.04 0.05 0.05 0.04 0.04 0.04 0.03 0.04
0.08 0.09 0.09 0.09 0.07 0.07 0.07 0.08 0.08 0.09 0.09 0.08 0.07 0.07 0.07 0.07 0.08 0.08 0.06 0.04 0.03 0.02 0.03 0.03 0.02 0.02 0.01 0.01 0.01 0.01 0.01 0.01 0.02 0.02 0.03 0.03 0.03 0.03 0.03 0.03 0.03 0.03 0.04
0.05 0.07 0.07 0.08 0.08 0.08 0.07 0.10 0.11 0.11 0.10 0.08 0.06 0.06 0.06 0.06 0.06 0.05 0.03 0.03 0.03 0.03 0.03 0.03 0.02 0.02 0.02 0.02 0.02 0.02 0.02 0.02 0.03 0.03 0.03 0.04 0.04 0.04 0.05 0.05 0.05 0.06 0.07
0.05 0.05 0.06 0.07 0.08 0.07 0.07 0.07 0.07 0.07 0.06 0.05 0.03 0.04 0.04 0.04 0.03 0.03 0.03 0.03 0.03 0.03 0.03 0.04 0.04 0.04 0.04 0.04 0.04 0.04 0.03 0.03 0.04 0.04 0.04 0.05 0.05 0.06 0.06 0.06 0.07 0.09 0.10
0.05 0.05 0.05 0.06 0.06 0.07 0.07 0.06 0.05 0.04 0.03 0.03 0.03 0.02 0.02 0.02 0.02 0.02 0.02 0.02 0.02 0.02 0.02 0.03 0.04 0.04 0.04 0.04 0.05 0.05 0.05 0.05 0.04 0.04 0.05 0.05 0.04 0.04 0.04 0.04 0.05 0.06 0.07
0.06 0.06 0.06 0.07 0.08 0.08 0.07 0.05 0.05 0.04 0.03 0.03 0.02 0.02 0.02 0.01 0.02 0.02 0.01 0.01 0.01 0.02 0.02 0.03 0.03 0.03 0.02 0.03 0.03 0.03 0.04 0.04 0.05 0.05 0.04 0.05 0.05 0.05 0.04 0.04 0.04 0.04 0.05
0.08 0.07 0.07 0.06 0.06 0.06 0.05 0.04 0.04 0.03 0.02 0.02 0.01 0.01 0.01 0.01 0.02 0.01 0.01 0.01 0.01 0.02 0.02 0.02 0.02 0.01 0.01 0.01 0.02 0.02 0.02 0.03 0.03 0.04 0.05 0.05 0.05 0.05 0.05 0.05 0.05 0.07 0.06
0.05 0.07 0.07 0.06 0.04 0.03 0.02 0.02 0.02 0.02 0.02 0.02 0.01 0.01 0.02 0.02 0.02 0.02 0.01 0.01 0.01 0.02 0.02 0.02 0.01 0.01 0.01 0.01 0.01 0.01 0.02 0.02 0.02 0.03 0.03 0.04 0.05 0.05 0.05 0.05 0.05 0.05 0.04
0.04 0.05 0.05 0.05 0.04 0.04 0.03 0.02 0.01 0.01 0.01 0.01 0.01 0.02 0.03 0.04 0.04 0.03 0.03 0.02 0.02 0.02 0.01 0.01 0.01 0.01 0.01 0.01 0.01 0.01 0.02 0.02 0.02 0.02 0.02 0.03 0.04 0.04 0.04 0.04 0.04 0.05 0.05
0.03 0.05 0.05 0.04 0.04 0.03 0.02 0.02 0.02 0.01 0.01 0.01 0.01 0.01 0.01 0.02 0.01 0.01 0.01 0.01 0.01 0.00 0.00 0.00 0.00 0.00 0.01 0.01 0.01 0.01 0.01 0.01 0.02 0.02 0.02 0.02 0.03 0.03 0.04 0.05 0.05 0.06 0.07
0.03 0.03 0.03 0.04 0.03 0.02 0.01 0.01 0.01 0.01 0.01 0.01 0.01 0.00 0.00 0.01 0.00 0.00 0.00 0.00 0.00 0.00 0.00 0.00 0.00 0.00 0.01 0.01 0.01 0.01 0.01 0.01 0.01 0.02 0.03 0.04 0.05 0.06 0.07 0.07 0.08 0.08 0.08
0.04 0.03 0.03 0.03 0.02 0.01 0.01 0.01 0.01 0.01 0.01 0.01 0.01 0.01 0.01 0.00 0.00 0.00 0.00 0.00 0.00 0.00 0.00 0.00 0.01 0.01 0.01 0.01 0.01 0.01 0.01 0.01 0.01 0.01 0.03 0.04 0.05 0.06 0.07 0.06 0.05 0.05 0.04
0.03 0.03 0.02 0.02 0.02 0.02 0.01 0.01 0.01 0.01 0.01 0.01 0.01 0.01 0.01 0.01 0.01 0.00 0.00 0.00 0.00 0.00 0.00 0.00 0.01 0.01 0.01 0.01 0.01 0.01 0.01 0.01 0.01 0.01 0.01 0.01 0.02 0.02 0.01 0.01 0.01 0.01 0.01
0.03 0.02 0.02 0.02 0.02 0.02 0.02 0.02 0.01 0.01 0.01 0.00 0.00 0.00 0.00 0.00 0.00 0.00 0.00 0.00 0.00 0.00 0.00 0.00 0.00 0.01 0.01 0.01 0.01 0.01 0.01 0.01 0.01 0.01 0.01 0.02 0.02 0.02 0.01 0.01 0.01 0.01 0.01
MSLP
1007.79 1008.39 1008.93 1009.39 1009.76 1010.05 1010.28 1010.47 1010.66 1010.88 1011.14 1011.46 1011.83 1012.25 1012.70 1013.16 1013.63 1014.08 1014.52 1014.95 1015.38 1015.79 1016.20 1016.60 1016.99 1017.36 1017.70 1018.00 1018.27 1018.49 1018.66 1018.79 1018.89 1018.95 1018.97 1018.98 1018.97 1018.95 1018.93 1018.93 1018.97 1019.04 1019.15
1007.51 1008.07 1008.59 1009.03 1009.41 1009.72 1009.98 1010.21 1010.44 1010.68 1010.96 1011.28 1011.63 1012.01 1012.41 1012.82 1013.23 1013.64 1014.04 1014.44 1014.84 1015.24 1015.64 1016.05 1016.46 1016.87 1017.25 1017.62 1017.96 1018.27 1018.53 1018.76 1018.93 1019.05 1019.12 1019.13 1019.10 1019.04 1018.96 1018.88 1018.83 1018.82 1018.86
1007.29 1007.81 1008.28 1008.70 1009.07 1009.39 1009.67 1009.94 1010.20 1010.47 1010.76 1011.07 1011.40 1011.74 1012.08 1012.43 1012.77 1013.11 1013.47 1013.83 1014.20 1014.60 1015.02 1015.46 1015.92 1016.38 1016.84 1017.28 1017.71 1018.10 1018.46 1018.76 1019.00 1019.17 1019.26 1019.27 1019.22 1019.11 1018.97 1018.83 1018.70 1018.62 1018.60
1007.09 1007.56 1007.98 1008.36 1008.70 1009.02 1009.31 1009.59 1009.88 1010.17 1010.46 1010.76 1011.06 1011.36 1011.64 1011.92 1012.20 1012.49 1012.79 1013.13 1013.50 1013.92 1014.38 1014.87 1015.40 1015.94 1016.48 1017.01 1017.52 1018.00 1018.42 1018.77 1019.05 1019.24 1019.34 1019.34 1019.26 1019.12 1018.93 1018.74 1018.56 1018.44 1018.39
1006.88 1007.29 1007.65 1007.98 1008.28 1008.56 1008.84 1009.12 1009.41 1009.71 1010.01 1010.30 1010.58 1010.83 1011.07 1011.30 1011.53 1011.78 1012.06 1012.40 1012.79 1013.25 1013.77 1014.35 1014.96 1015.59 1016.22 1016.83 1017.41 1017.93 1018.39 1018.77 1019.05 1019.24 1019.32 1019.31 1019.21 1019.04 1018.84 1018.62 1018.43 1018.30 1018.24
1006.65 1007.01 1007.31 1007.57 1007.80 1008.03 1008.28 1008.54 1008.82 1009.11 1009.41 1009.69 1009.95 1010.18 1010.40 1010.60 1010.81 1011.05 1011.34 1011.70 1012.14 1012.67 1013.27 1013.94 1014.64 1015.35 1016.06 1016.73 1017.35 1017.89 1018.35 1018.71 1018.98 1019.14 1019.20 1019.16 1019.05 1018.89 1018.70 1018.51 1018.34 1018.23 1018.19
1006.44 1006.74 1006.97 1007.16 1007.32 1007.49 1007.68 1007.90 1008.15 1008.43 1008.72 1009.00 1009.26 1009.49 1009.70 1009.90 1010.12 1010.38 1010.71 1011.12 1011.63 1012.24 1012.93 1013.68 1014.47 1015.25 1016.01 1016.71 1017.33 1017.86 1018.28 1018.60 1018.82 1018.94 1018.97 1018.93 1018.83 1018.70 1018.56 1018.43 1018.33 1018.28 1018.29
1006.28 1006.54 1006.71 1006.82 1006.91 1007.00 1007.13 1007.31 1007.53 1007.78 1008.06 1008.34 1008.61 1008.85 1009.08 1009.31 1009.57 1009.88 1010.26 1010.74 1011.32 1012.01 1012.78 1013.60 1014.45 1015.27 1016.05 1016.74 1017.33 1017.81 1018.18 1018.43 1018.59 1018.67 1018.68 1018.65 1018.59 1018.52 1018.46 1018.43 1018.43 1018.47 1018.55
1006.24 1006.46 1006.57 1006.62 1006.64 1006.68 1006.75 1006.87 1007.06 1007.30 1007.57 1007.86 1008.14 1008.41 1008.68 1008.95 1009.25 1009.61 1010.05 1010.59 1011.24 1011.99 1012.81 1013.67 1014.54 1015.37 1016.14 1016.79 1017.33 1017.74 1018.03 1018.22 1018.33 1018.38 1018.39 1018.39 1018.39 1018.42 1018.47 1018.55 1018.66 1018.80 1018.96
1006.32 1006.52 1006.60 1006.61 1006.58 1006.56 1006.59 1006.69 1006.85 1007.08 1007.35 1007.64 1007.95 1008.25 1008.54 1008.85 1009.20 1009.60 1010.09 1010.67 1011.35 1012.13 1012.97 1013.84 1014.69 1015.50 1016.22 1016.82 1017.29 1017.63 1017.86 1018.00 1018.07 1018.11 1018.15 1018.20 1018.29 1018.42 1018.59 1018.79 1019.02 1019.25 1019.48
1006.52 1006.71 1006.78 1006.76 1006.72 1006.68 1006.69 1006.77 1006.93 1007.15 1007.43 1007.74 1008.06 1008.38 1008.71 1009.05 1009.42 1009.84 1010.34 1010.93 1011.61 1012.38 1013.19 1014.03 1014.84 1015.59 1016.25 1016.79 1017.20 1017.49 1017.68 1017.79 1017.86 1017.92 1018.01 1018.13 1018.31 1018.54 1018.83 1019.13 1019.45 1019.75 1020.02
1006.81 1006.99 1007.06 1007.06 1007.02 1006.99 1007.01 1007.10 1007.26 1007.50 1007.79 1008.11 1008.45 1008.79 1009.13 1009.48 1009.85 1010.26 1010.74 1011.30 1011.95 1012.66 1013.41 1014.18 1014.93 1015.61 1016.21 1016.69 1017.07 1017.33 1017.51 1017.63 1017.73 1017.83 1017.98 1018.18 1018.45 1018.77 1019.13 1019.52 1019.89 1020.23 1020.50
1007.11 1007.30 1007.39 1007.41 1007.41 1007.41 1007.46 1007.58 1007.77 1008.02 1008.33 1008.67 1009.02 1009.37 1009.71 1010.04 1010.39 1010.78 1011.21 1011.71 1012.27 1012.90 1013.57 1014.26 1014.93 1015.55 1016.10 1016.55 1016.90 1017.17 1017.37 1017.53 1017.69 1017.86 1018.07 1018.34 1018.68 1019.06 1019.47 1019.88 1020.27 1020.60 1020.84
1007.37 1007.57 1007.69 1007.74 1007.78 1007.83 1007.93 1008.09 1008.31 1008.60 1008.94 1009.30 1009.66 1010.00 1010.33 1010.65 1010.96 1011.29 1011.65 1012.07 1012.55 1013.08 1013.66 1014.26 1014.85 1015.42 1015.93 1016.38 1016.75 1017.05 1017.31 1017.53 1017.75 1017.99 1018.27 1018.59 1018.96 1019.36 1019.77 1020.17 1020.52 1020.81 1021.00
1007.53 1007.73 1007.87 1007.97 1008.05 1008.16 1008.30 1008.52 1008.79 1009.12 1009.48 1009.86 1010.23 1010.58 1010.90 1011.19 1011.46 1011.74 1012.03 1012.37 1012.75 1013.19 1013.68 1014.20 1014.74 1015.27 1015.77 1016.23 1016.64 1017.00 1017.32 1017.62 1017.91 1018.21 1018.53 1018.88 1019.24 1019.62 1019.99 1020.33 1020.62 1020.83 1020.95
1007.57 1007.77 1007.92 1008.04 1008.16 1008.31 1008.51 1008.77 1009.09 1009.46 1009.86 1010.27 1010.66 1011.02 1011.34 1011.62 1011.86 1012.10 1012.33 1012.60 1012.91 1013.28 1013.70 1014.16 1014.66 1015.17 1015.67 1016.16 1016.62 1017.05 1017.44 1017.80 1018.15 1018.49 1018.82 1019.16 1019.49 1019.81 1020.11 1020.36 1020.55 1020.68 1020.73
1007.50 1007.67 1007.81 1007.95 1008.10 1008.29 1008.53 1008.84 1009.20 1009.61 1010.05 1010.49 1010.92 1011.30 1011.64 1011.92 1012.16 1012.38 1012.59 1012.81 1013.08 1013.39 1013.76 1014.19 1014.66 1015.16 1015.69 1016.20 1016.71 1017.18 1017.63 1018.04 1018.42 1018.77 1019.10 1019.40 1019.67 1019.91 1020.11 1020.27 1020.37 1020.41 1020.40
1007.34 1007.47 1007.59 1007.73 1007.89 1008.11 1008.38 1008.73 1009.13 1009.59 1010.07 1010.55 1011.02 1011.44 1011.82 1012.13 1012.39 1012.62 1012.83 1013.04 1013.29 1013.58 1013.93 1014.33 1014.79 1015.30 1015.83 1016.36 1016.89 1017.40 1017.87 1018.30 1018.69 1019.03 1019.32 1019.56 1019.76 1019.91 1020.02 1020.08 1020.10 1020.08 1020.03
1007.11 1007.20 1007.30 1007.43 1007.60 1007.83 1008.13 1008.50 1008.95 1009.44 1009.97 1010.51 1011.03 1011.50 1011.93 1012.29 1012.60 1012.86 1013.10 1013.33 1013.58 1013.87 1014.21 1014.61 1015.06 1015.55 1016.08 1016.62 1017.15 1017.66 1018.13 1018.54 1018.90 1019.20 1019.44 1019.62 1019.74 1019.82 1019.85 1019.85 1019.82 1019.77 1019.70
1006.85 1006.90 1006.98 1007.10 1007.28 1007.52 1007.85 1008.25 1008.73 1009.26 1009.84 1010.43 1011.00 1011.54 1012.02 1012.45 1012.81 1013.13 1013.41 1013.68 1013.95 1014.26 1014.60 1014.99 1015.43 1015.90 1016.41 1016.92 1017.43 1017.91 1018.34 1018.72 1019.03 1019.27 1019.45 1019.57 1019.64 1019.66 1019.65 1019.61 1019.56 1019.51 1019.46
1006.58 1006.62 1006.69 1006.81 1006.99 1007.25 1007.60 1008.03 1008.54 1009.12 1009.73 1010.37 1010.99 1011.59 1012.13 1012.62 1013.05 1013.42 1013.75 1014.06 1014.37 1014.69 1015.04 1015.42 1015.84 1016.29 1016.76 1017.23 1017.69 1018.11 1018.49 1018.80 1019.06 1019.24 1019.37 1019.44 1019.47 1019.46 1019.44 1019.41 1019.37 1019.36 1019.35
1006.34 1006.37 1006.45 1006.59 1006.79 1007.08 1007.45 1007.92 1008.45 1009.06 1009.70 1010.37 1011.03 1011.67 1012.26 1012.80 1013.28 1013.71 1014.09 1014.44 1014.78 1015.12 1015.47 1015.85 1016.24 1016.66 1017.08 1017.50 1017.89 1018.25 1018.55 1018.81 1019.00 1019.13 1019.22 1019.26 1019.27 1019.27 1019.26 1019.26 1019.28 1019.31 1019.37
1006.14 1006.20 1006.30 1006.47 1006.71 1007.03 1007.43 1007.92 1008.48 1009.10 1009.76 1010.44 1011.12 1011.78 1012.40 1012.97 1013.48 1013.95 1014.36 1014.75 1015.12 1015.48 1015.84 1016.21 1016.59 1016.97 1017.34 1017.70 1018.04 1018.33 1018.57 1018.76 1018.90 1019.00 1019.05 1019.09 1019.10 1019.12 1019.16 1019.21 1019.28 1019.38 1019.50
1006.01 1006.11 1006.27 1006.48 1006.76 1007.12 1007.55 1008.05 1008.62 1009.23 1009.89 1010.56 1011.23 1011.89 1012.51 1013.08 1013.61 1014.10 1014.55 1014.96 1015.35 1015.73 1016.10 1016.48 1016.84 1017.20 1017.55 1017.87 1018.15 1018.39 1018.59 1018.73 1018.84 1018.90 1018.95 1018.98 1019.02 1019.07 1019.15 1019.25 1019.39 1019.54 1019.72
1005.97 1006.14 1006.35 1006.61 1006.94 1007.32 1007.77 1008.28 1008.84 1009.44 1010.07 1010.71 1011.35 1011.97 1012.57 1013.13 1013.66 1014.15 1014.62 1015.05 1015.47 1015.88 1016.28 1016.66 1017.04 1017.40 1017.73 1018.03 1018.28 1018.50 1018.66 1018.78 1018.86 1018.92 1018.97 1019.01 1019.07 1019.15 1019.26 1019.41 1019.58 1019.77 1019.98
1006.04 1006.27 1006.54 1006.86 1007.22 1007.63 1008.09 1008.58 1009.12 1009.68 1010.26 1010.85 1011.44 1012.02 1012.58 1013.11 1013.63 1014.12 1014.60 1015.06 1015.51 1015.95 1016.38 1016.80 1017.20 1017.58 1017.92 1018.23 1018.48 1018.69 1018.85 1018.96 1019.04 1019.09 1019.14 1019.19 1019.27 1019.36 1019.49 1019.65 1019.84 1020.04 1020.24
Thickness
5803 5799 5795 5791 5787 5784 5780 5778 5775 5772 5770 5768 5766 5763 5761 5759 5758 5756 5754 5753 5750 5749 5748 5747 5746 5746 5744 5744 5745 5743 5741 5737 5731 5734 5738 5740 5739 5737 5736 5735 5733 5731 5730
5804 5798 5794 5790 5787 5783 5780 5778 5775 5772 5770 5768 5765 5763 5761 5759 5757 5755 5752 5752 5749 5747 5746 5745 5744 5744 5741 5740 5739 5738 5737 5736 5731 5728 5732 5733 5733 5733 5732 5731 5730 5729 5727
5803 5797 5792 5788 5785 5782 5779 5777 5774 5772 5769 5767 5764 5761 5759 5758 5756 5754 5752 5750 5748 5746 5745 5743 5741 5740 5737 5736 5735 5734 5733 5733 5730 5727 5726 5728 5728 5729 5728 5727 5726 5725 5724
5801 5795 5790 5786 5783 5780 5778 5775 5773 5771 5768 5765 5762 5760 5758 5756 5754 5752 5750 5747 5746 5744 5743 5741 5739 5736 5734 5733 5732 5730 5729 5727 5726 5723 5721 5721 5722 5723 5722 5719 5717 5718 5717
5799 5793 5788 5785 5782 5779 5776 5773 5771 5769 5766 5763 5760 5757 5755 5753 5750 5748 5746 5745 5742 5740 5738 5737 5735 5733 5731 5729 5728 5726 5725 5722 5720 5717 5715 5714 5714 5713 5712 5713 5711 5711 5711
5795 5790 5787 5783 5779 5776 5773 5770 5768 5765 5763 5760 5757 5754 5751 5748 5745 5743 5742 5741 5738 5736 5733 5732 5731 5730 5727 5725 5723 5722 5720 5716 5713 5710 5708 5706 5705 5706 5707 5707 5704 5702 5700
5791 5787 5784 5779 5776 5773 5771 5767 5764 5760 5758 5755 5753 5750 5745 5742 5740 5739 5737 5736 5734 5731 5729 5727 5726 5725 5722 5720 5718 5716 5714 5711 5708 5705 5701 5700 5699 5700 5700 5699 5698 5696 5693
5786 5783 5780 5776 5772 5769 5766 5763 5760 5757 5753 5750 5748 5745 5741 5737 5735 5734 5732 5731 5729 5726 5724 5722 5719 5716 5715 5712 5711 5709 5707 5705 5703 5700 5698 5696 5695 5695 5694 5693 5691 5690 5688
5781 5778 5776 5772 5768 5765 5761 5758 5756 5752 5748 5745 5742 5739 5736 5732 5729 5728 5727 5726 5723 5720 5717 5715 5712 5709 5707 5706 5704 5702 5699 5698 5697 5695 5693 5691 5689 5688 5687 5685 5682 5679 5676
5777 5775 5772 5769 5765 5760 5757 5754 5751 5747 5743 5740 5736 5733 5730 5726 5723 5722 5721 5721 5717 5714 5710 5708 5705 5702 5700 5699 5697 5694 5691 5690 5689 5688 5686 5685 5683 5681 5679 5676 5673 5669 5666
5773 5770 5767 5764 5760 5757 5753 5749 5745 5741 5737 5733 5728 5725 5722 5719 5716 5714 5713 5712 5710 5706 5703 5700 5697 5694 5692 5690 5688 5686 5683 5682 5682 5681 5679 5677 5675 5673 5671 5668 5666 5661 5657
5766 5763 5760 5757 5755 5751 5745 5741 5738 5734 5729 5725 5721 5717 5714 5711 5707 5705 5704 5702 5700 5698 5695 5692 5689 5686 5683 5681 5680 5677 5676 5675 5674 5672 5669 5667 5665 5663 5662 5660 5658 5654 5651
5756 5753 5751 5748 5744 5741 5736 5732 5729 5725 5721 5717 5714 5709 5705 5702 5698 5696 5694 5693 5691 5688 5685 5682 5679 5677 5675 5673 5670 5669 5666 5664 5663 5661 5658 5656 5656 5654 5653 5651 5648 5645 5642
5744 5741 5739 5735 5730 5726 5723 5721 5717 5714 5712 5708 5704 5700 5696 5692 5688 5686 5685 5684 5681 5678 5676 5673 5671 5668 5666 5663 5661 5659 5656 5654 5652 5650 5648 5646 5645 5644 5642 5639 5636 5633 5630
5733 5730 5727 5723 5719 5712 5707 5702 5701 5696 5697 5697 5694 5690 5687 5681 5675 5674 5674 5673 5671 5668 5666 5665 5663 5660 5656 5654 5651 5649 5646 5643 5640 5638 5636 5634 5633 5631 5629 5627 5624 5621 5617
5722 5720 5717 5713 5708 5703 5697 5689 5683 5683 5682 5682 5681 5678 5673 5669 5666 5665 5663 5662 5660 5659 5657 5654 5650 5647 5644 5642 5640 5637 5635 5631 5629 5627 5625 5622 5620 5618 5616 5614 5612 5608 5604
5713 5710 5708 5704 5699 5695 5690 5685 5677 5670 5669 5668 5666 5664 5661 5658 5656 5654 5652 5651 5649 5647 5646 5641 5637 5634 5631 5629 5626 5624 5621 5619 5617 5615 5613 5610 5608 5606 5604 5601 5598 5595 5591
5703 5701 5698 5694 5692 5688 5683 5679 5673 5668 5663 5657 5652 5650 5648 5646 5645 5643 5641 5640 5638 5635 5632 5628 5625 5621 5618 5616 5613 5611 5609 5606 5604 5602 5600 5598 5596 5594 5591 5588 5585 5582 5579
5693 5690 5688 5685 5683 5680 5676 5671 5666 5660 5655 5650 5645 5640 5637 5635 5633 5631 5630 5629 5626 5622 5619 5615 5612 5609 5606 5603 5601 5599 5597 5594 5592 5590 5587 5585 5583 5581 5578 5575 5572 5568 5565
5681 5679 5678 5676 5673 5670 5665 5661 5656 5651 5646 5642 5638 5633 5629 5627 5624 5621 5618 5616 5613 5609 5606 5603 5599 5596 5593 5590 5588 5586 5584 5581 5578 5576 5574 5572 5570 5568 5565 5562 5559 5556 5553
5672 5669 5667 5666 5663 5659 5654 5651 5648 5644 5639 5633 5628 5623 5621 5619 5616 5612 5608 5605 5601 5597 5593 5590 5587 5584 5580 5578 5575 5572 5570 5567 5564 5562 5560 5559 5557 5555 5552 5549 5546 5543 5539
5662 5660 5658 5655 5652 5648 5644 5641 5638 5634 5630 5625 5619 5615 5611 5610 5606 5601 5597 5593 5590 5585 5582 5578 5574 5570 5566 5563 5560 5557 5554 5551 5549 5548 5546 5545 5544 5542 5540 5537 5533 5530 5527
5652 5649 5646 5643 5641 5637 5635 5632 5629 5625 5620 5616 5611 5606 5602 5599 5595 5591 5586 5582 5578 5574 5569 5565 5561 5556 5552 5549 5545 5542 5538 5535 5533 5532 5532 5531 5530 5529 5527 5524 5521 5518 5514
5641 5639 5636 5634 5631 5629 5626 5622 5619 5615 5611 5606 5601 5597 5593 5589 5585 5580 5576 5571 5566 5561 5557 5552 5548 5543 5539 5536 5532 5528 5524 5521 5520 5519 5518 5517 5517 5515 5513 5511 5508 5505 5502
5632 5629 5627 5625 5622 5620 5616 5613 5609 5605 5601 5596 5592 5587 5583 5578 5574 5569 5564 5559 5554 5549 5545 5540 5535 5531 5527 5522 5518 5514 5512 5511 5509 5507 5506 5505 5504 5502 5501 5499 5497 5494 5491
5623 5621 5619 5616 5613 5610 5607 5603 5599 5595 5590 5586 5581 5577 5572 5568 5562 5557 5552 5547 5543 5537 5533 5528 5523 5518 5514 5509 5505 5503 5502 5500 5499 5497 5495 5495 5494 5491 5489 5488 5486 5483 5481